Location: Alfortville
(48.8058°N, 2.4204°E)
Time: 16:13:21
(UTC+00:00)

ISS - Visible Passes

Search period start: 07 December 2025 00:00
Search period end: 17 December 2025 00:00
Orbit: 416 x 421 km, 51.6° (Epoch: 06 December)

Date Brightness Start Highest point End Pass type
(mag) Time Alt. Az. Time Alt. Az. Time Alt. Az.
13 Dec -0.9 06:13:20 10° S 06:15:54 20° SE 06:18:28 10° E visible
14 Dec -0.6 05:26:25 10° SSE 05:28:07 13° SE 05:29:51 10° ESE visible
15 Dec -2.6 06:13:12 10° SW 06:16:25 43° SSE 06:19:40 10° ENE visible
16 Dec -1.9 05:26:44 18° SSW 05:28:30 29° SE 05:31:28 10° E visible
16 Dec -3.8 07:01:43 10° WSW 07:05:05 74° NNW 07:08:29 10° ENE visible
